OAO 3 (COPERNICUS) (6153 NORAD) Tracking and Keplerian Element Data

This shows tracking and keplerian element data for the satellite.

Feedback or suggestion? Click here.




ElementValue
Catalog6153
NameOAO 3 (COPERNICUS)
Epoch Orbit62529
Epoch Day16.00927854
Epoch Year2022
RAAN265.8884
Inclination35.0061
Eccentricity0.0006252
Argument of Perigee33.9353
Mean Anonmoly98.0896
Mean Motion14.58022492
Decay Rate1.46E-06
L11 06153U 72065A 22016.00927854 .00000146 00000+0 35858-4 0 9994
L22 06153 35.0061 265.8884 0006252 33.9353 98.0896 14.58022492625295

Live tracking and technical data element details for OAO 3 (COPERNICUS) (NORAD 6153). OAO 3 (COPERNICUS) can be tracked NOW for your location showing map with azimuth and elevation plus other details from your city location.

Track the satellite on the map from your city or location and see movement details for azimuth, elevation, latitude, longitude, range, height, and movement on the map or in text.







IsCatalogInMostPopularTable: catalog: 6153, numindb: 522
Update: records affected: 1



GetName: 6153 OAO 3 (COPERNICUS)

Hit Count: updated at: Mon, 17 Jan 2022 02:13:21 GMT